Year,Month,Day,Hour,Minute,Value (Times are PST for temperature in C)
2017,09,28,00,00,14.70
2017,09,28,00,01,14.70
2017,09,28,00,02,14.70
2017,09,28,00,03,14.60
2017,09,28,00,04,14.50
2017,09,28,00,05,14.50
2017,09,28,00,06,14.40
2017,09,28,00,07,14.30
2017,09,28,00,08,14.20
2017,09,28,00,09,14.20
2017,09,28,00,10,14.10
2017,09,28,00,11,14.10
2017,09,28,00,12,14.00
2017,09,28,00,13,14.00
2017,09,28,00,14,14.00
2017,09,28,00,15,14.00
2017,09,28,00,16,14.00
2017,09,28,00,17,14.00
2017,09,28,00,18,14.00
2017,09,28,00,19,14.00
2017,09,28,00,20,13.90
2017,09,28,00,21,13.90
2017,09,28,00,22,13.90
2017,09,28,00,23,13.90
2017,09,28,00,24,13.90
2017,09,28,00,25,13.90
2017,09,28,00,26,13.90
2017,09,28,00,27,13.90
2017,09,28,00,28,13.80
2017,09,28,00,29,13.80
2017,09,28,00,30,13.80
2017,09,28,00,31,13.80
2017,09,28,00,32,13.80
2017,09,28,00,33,13.80
2017,09,28,00,34,13.70
2017,09,28,00,35,13.70
2017,09,28,00,36,13.70
2017,09,28,00,37,13.60
2017,09,28,00,38,13.60
2017,09,28,00,39,13.60
2017,09,28,00,40,13.60
2017,09,28,00,41,13.60
2017,09,28,00,42,13.60
2017,09,28,00,43,13.60
2017,09,28,00,44,13.60
2017,09,28,00,45,13.60
2017,09,28,00,46,13.50
2017,09,28,00,47,13.50
2017,09,28,00,48,13.50
2017,09,28,00,49,13.50
2017,09,28,00,50,13.50
2017,09,28,00,51,13.50
2017,09,28,00,52,13.60
2017,09,28,00,53,13.60
2017,09,28,00,54,13.60
2017,09,28,00,55,13.60
2017,09,28,00,56,13.60
2017,09,28,00,57,13.60
2017,09,28,00,58,13.50
2017,09,28,00,59,13.50
2017,09,28,01,00,13.40
2017,09,28,01,01,13.40
2017,09,28,01,02,13.40
2017,09,28,01,03,13.30
2017,09,28,01,04,13.30
2017,09,28,01,05,13.30
2017,09,28,01,06,13.30
2017,09,28,01,07,13.30
2017,09,28,01,08,13.30
2017,09,28,01,09,13.30
2017,09,28,01,10,13.30
2017,09,28,01,11,13.30
2017,09,28,01,12,13.30
2017,09,28,01,13,13.30
2017,09,28,01,14,13.30
2017,09,28,01,15,13.30
2017,09,28,01,16,13.30
2017,09,28,01,17,13.30
2017,09,28,01,18,13.30
2017,09,28,01,19,13.30
2017,09,28,01,20,13.30
2017,09,28,01,21,13.30
2017,09,28,01,22,13.30
2017,09,28,01,23,13.40
2017,09,28,01,24,13.40
2017,09,28,01,25,13.40
2017,09,28,01,26,13.40
2017,09,28,01,27,13.40
2017,09,28,01,28,13.30
2017,09,28,01,29,13.30
2017,09,28,01,30,13.30
2017,09,28,01,31,13.30
2017,09,28,01,32,13.30
2017,09,28,01,33,13.30
2017,09,28,01,34,13.30
2017,09,28,01,35,13.30
2017,09,28,01,36,13.20
2017,09,28,01,37,13.20
2017,09,28,01,38,13.10
2017,09,28,01,39,13.10
2017,09,28,01,40,13.10
2017,09,28,01,41,13.10
2017,09,28,01,42,13.20
2017,09,28,01,43,13.20
2017,09,28,01,44,13.20
2017,09,28,01,45,13.20
2017,09,28,01,46,13.20
2017,09,28,01,47,13.30
2017,09,28,01,48,13.30
2017,09,28,01,49,13.40
2017,09,28,01,50,13.40
2017,09,28,01,51,13.40
2017,09,28,01,52,13.40
2017,09,28,01,53,13.40
2017,09,28,01,54,13.40
2017,09,28,01,55,13.40
2017,09,28,01,56,13.40
2017,09,28,01,57,13.50
2017,09,28,01,58,13.60
2017,09,28,01,59,13.60
2017,09,28,02,00,13.60
2017,09,28,02,01,13.60
2017,09,28,02,02,13.60
2017,09,28,02,03,13.60
2017,09,28,02,04,13.60
2017,09,28,02,05,13.60
2017,09,28,02,06,13.60
2017,09,28,02,07,13.70
2017,09,28,02,08,13.60
2017,09,28,02,09,13.60
2017,09,28,02,10,13.60
2017,09,28,02,11,13.60
2017,09,28,02,12,13.60
2017,09,28,02,13,13.60
2017,09,28,02,14,13.60
2017,09,28,02,15,13.60
2017,09,28,02,16,13.60
2017,09,28,02,17,13.60
2017,09,28,02,18,13.60
2017,09,28,02,19,13.60
2017,09,28,02,20,13.70
2017,09,28,02,21,13.70
2017,09,28,02,22,13.80
2017,09,28,02,23,13.80
2017,09,28,02,24,13.80
2017,09,28,02,25,13.80
2017,09,28,02,26,13.80
2017,09,28,02,27,13.70
2017,09,28,02,28,13.70
2017,09,28,02,29,13.70
2017,09,28,02,30,13.70
2017,09,28,02,31,13.80
2017,09,28,02,32,13.80
2017,09,28,02,33,13.90
2017,09,28,02,34,13.90
2017,09,28,02,35,13.90
2017,09,28,02,36,13.90
2017,09,28,02,37,13.80
2017,09,28,02,38,13.70
2017,09,28,02,39,13.70
2017,09,28,02,40,13.60
2017,09,28,02,41,13.60
2017,09,28,02,42,13.50
2017,09,28,02,43,13.50
2017,09,28,02,44,13.40
2017,09,28,02,45,13.40
2017,09,28,02,46,13.30
2017,09,28,02,47,13.30
2017,09,28,02,48,13.30
2017,09,28,02,49,13.30
2017,09,28,02,50,13.20
2017,09,28,02,51,13.20
2017,09,28,02,52,13.20
2017,09,28,02,53,13.10
2017,09,28,02,54,13.10
2017,09,28,02,55,13.10
2017,09,28,02,56,13.10
2017,09,28,02,57,13.10
2017,09,28,02,58,13.10
2017,09,28,02,59,13.10
2017,09,28,03,00,13.10
2017,09,28,03,01,13.20
2017,09,28,03,02,13.20
2017,09,28,03,03,13.20
2017,09,28,03,04,13.30
2017,09,28,03,05,13.30
2017,09,28,03,06,13.30
2017,09,28,03,07,13.30
2017,09,28,03,08,13.30
2017,09,28,03,09,13.30
2017,09,28,03,10,13.30
2017,09,28,03,11,13.30
2017,09,28,03,12,13.30
2017,09,28,03,13,13.30
2017,09,28,03,14,13.30
2017,09,28,03,15,13.20
2017,09,28,03,16,13.20
2017,09,28,03,17,13.20
2017,09,28,03,18,13.20
2017,09,28,03,19,13.20
2017,09,28,03,20,13.20
2017,09,28,03,21,13.10
2017,09,28,03,22,13.10
2017,09,28,03,23,13.10
2017,09,28,03,24,13.10
2017,09,28,03,25,13.00
2017,09,28,03,26,13.00
2017,09,28,03,27,12.90
2017,09,28,03,28,12.90
2017,09,28,03,29,12.80
2017,09,28,03,30,12.80
2017,09,28,03,31,12.80
2017,09,28,03,32,12.70
2017,09,28,03,33,12.70
2017,09,28,03,34,12.70
2017,09,28,03,35,12.70
2017,09,28,03,36,12.60
2017,09,28,03,37,12.60
2017,09,28,03,38,12.60
2017,09,28,03,39,12.60
2017,09,28,03,40,12.50
2017,09,28,03,41,12.50
2017,09,28,03,42,12.50
2017,09,28,03,43,12.40
2017,09,28,03,44,12.40
2017,09,28,03,45,12.50
2017,09,28,03,46,12.60
2017,09,28,03,47,12.60
2017,09,28,03,48,12.70
2017,09,28,03,49,12.80
2017,09,28,03,50,12.80
2017,09,28,03,51,12.90
2017,09,28,03,52,12.90
2017,09,28,03,53,13.00
2017,09,28,03,54,13.00
2017,09,28,03,55,13.00
2017,09,28,03,56,13.10
2017,09,28,03,57,13.10
2017,09,28,03,58,13.20
2017,09,28,03,59,13.20
2017,09,28,04,00,13.20
2017,09,28,04,01,13.20
2017,09,28,04,02,13.30
2017,09,28,04,03,13.30
2017,09,28,04,04,13.30
2017,09,28,04,05,13.30
2017,09,28,04,06,13.40
2017,09,28,04,07,13.40
2017,09,28,04,08,13.40
2017,09,28,04,09,13.40
2017,09,28,04,10,13.40
2017,09,28,04,11,13.40
2017,09,28,04,12,13.40
2017,09,28,04,13,13.40
2017,09,28,04,14,13.40
2017,09,28,04,15,13.30
2017,09,28,04,16,13.30
2017,09,28,04,17,13.30
2017,09,28,04,18,13.40
2017,09,28,04,19,13.50
2017,09,28,04,20,13.60
2017,09,28,04,21,13.70
2017,09,28,04,22,13.80
2017,09,28,04,23,13.80
2017,09,28,04,24,13.80
2017,09,28,04,25,13.80
2017,09,28,04,26,13.70
2017,09,28,04,27,13.70
2017,09,28,04,28,13.70
2017,09,28,04,29,13.70
2017,09,28,04,30,13.60
2017,09,28,04,31,13.60
2017,09,28,04,32,13.60
2017,09,28,04,33,13.50
2017,09,28,04,34,13.50
2017,09,28,04,35,13.50
2017,09,28,04,36,13.40
2017,09,28,04,37,13.40
2017,09,28,04,38,13.30
2017,09,28,04,39,13.30
2017,09,28,04,40,13.20
2017,09,28,04,41,13.10
2017,09,28,04,42,13.10
2017,09,28,04,43,13.00
2017,09,28,04,44,12.90
2017,09,28,04,45,12.90
2017,09,28,04,46,12.80
2017,09,28,04,47,12.80
2017,09,28,04,48,12.80
2017,09,28,04,49,12.70
2017,09,28,04,50,12.70
2017,09,28,04,51,12.70
2017,09,28,04,52,12.70
2017,09,28,04,53,12.70
2017,09,28,04,54,12.80
2017,09,28,04,55,12.80
2017,09,28,04,56,12.80
2017,09,28,04,57,12.80
2017,09,28,04,58,12.80
2017,09,28,04,59,12.80
2017,09,28,05,00,12.80
2017,09,28,05,01,12.80
2017,09,28,05,02,12.80
2017,09,28,05,03,12.80
2017,09,28,05,04,12.80
2017,09,28,05,05,12.90
2017,09,28,05,06,12.90
2017,09,28,05,07,12.90
2017,09,28,05,08,12.90
2017,09,28,05,09,12.90
2017,09,28,05,10,13.00
2017,09,28,05,11,12.90
2017,09,28,05,12,12.90
2017,09,28,05,13,12.90
2017,09,28,05,14,12.90
2017,09,28,05,15,12.90
2017,09,28,05,16,12.80
2017,09,28,05,17,12.80
2017,09,28,05,18,12.90
2017,09,28,05,19,12.90
2017,09,28,05,20,12.90
2017,09,28,05,21,12.90
2017,09,28,05,22,12.90
2017,09,28,05,23,13.00
2017,09,28,05,24,13.00
2017,09,28,05,25,13.00
2017,09,28,05,26,13.00
2017,09,28,05,27,13.00
2017,09,28,05,28,13.00
2017,09,28,05,29,12.90
2017,09,28,05,30,12.90
2017,09,28,05,31,12.90
2017,09,28,05,32,12.90
2017,09,28,05,33,12.90
2017,09,28,05,34,12.90
2017,09,28,05,35,12.90
2017,09,28,05,36,13.00
2017,09,28,05,37,13.00
2017,09,28,05,38,13.00
2017,09,28,05,39,13.00
2017,09,28,05,40,13.00
2017,09,28,05,41,13.00
2017,09,28,05,42,13.00
2017,09,28,05,43,12.90
2017,09,28,05,44,12.90
2017,09,28,05,45,12.90
2017,09,28,05,46,12.90
2017,09,28,05,47,12.90
2017,09,28,05,48,12.90
2017,09,28,05,49,12.90
2017,09,28,05,50,12.90
2017,09,28,05,51,12.90
2017,09,28,05,52,12.90
2017,09,28,05,53,12.90
2017,09,28,05,54,13.00
2017,09,28,05,55,13.00
2017,09,28,05,56,13.00
2017,09,28,05,57,13.10
2017,09,28,05,58,13.10
2017,09,28,05,59,13.10
2017,09,28,06,00,13.10
2017,09,28,06,01,13.20
2017,09,28,06,02,13.20
2017,09,28,06,03,13.20
2017,09,28,06,04,13.20
2017,09,28,06,05,13.10
2017,09,28,06,06,13.10
2017,09,28,06,07,13.10
2017,09,28,06,08,13.10
2017,09,28,06,09,13.10
2017,09,28,06,10,13.10
2017,09,28,06,11,13.10
2017,09,28,06,12,13.10
2017,09,28,06,13,13.00
2017,09,28,06,14,13.00
2017,09,28,06,15,12.90
2017,09,28,06,16,12.90
2017,09,28,06,17,12.90
2017,09,28,06,18,12.90
2017,09,28,06,19,12.90
2017,09,28,06,20,12.90
2017,09,28,06,21,12.90
2017,09,28,06,22,12.90
2017,09,28,06,23,12.90
2017,09,28,06,24,12.90
2017,09,28,06,25,12.90
2017,09,28,06,26,12.90
2017,09,28,06,27,12.90
2017,09,28,06,28,12.90
2017,09,28,06,29,12.90
2017,09,28,06,30,12.90
2017,09,28,06,31,12.90
2017,09,28,06,32,12.90
2017,09,28,06,33,12.90
2017,09,28,06,34,12.80
2017,09,28,06,35,12.80
2017,09,28,06,36,12.80
2017,09,28,06,37,12.70
2017,09,28,06,38,12.70
2017,09,28,06,39,12.70
2017,09,28,06,40,12.60
2017,09,28,06,41,12.60
2017,09,28,06,42,12.60
2017,09,28,06,43,12.60
2017,09,28,06,44,12.60
2017,09,28,06,45,12.70
2017,09,28,06,46,12.70
2017,09,28,06,47,12.80
2017,09,28,06,48,12.80
2017,09,28,06,49,12.80
2017,09,28,06,50,12.80
2017,09,28,06,51,12.80
2017,09,28,06,52,12.80
2017,09,28,06,53,12.70
2017,09,28,06,54,12.70
2017,09,28,06,55,12.70
2017,09,28,06,56,12.70
2017,09,28,06,57,12.60
2017,09,28,06,58,12.60
2017,09,28,06,59,12.60
2017,09,28,07,00,12.60
2017,09,28,07,01,12.60
2017,09,28,07,02,12.60
2017,09,28,07,03,12.60
2017,09,28,07,04,12.50
2017,09,28,07,05,12.50
2017,09,28,07,06,12.40
2017,09,28,07,07,12.30
2017,09,28,07,08,12.30
2017,09,28,07,09,12.20
2017,09,28,07,10,12.20
2017,09,28,07,11,12.20
2017,09,28,07,12,12.20
2017,09,28,07,13,12.20
2017,09,28,07,14,12.30
2017,09,28,07,15,12.30
2017,09,28,07,16,12.30
2017,09,28,07,17,12.30
2017,09,28,07,18,12.30
2017,09,28,07,19,12.40
2017,09,28,07,20,12.40
2017,09,28,07,21,12.40
2017,09,28,07,22,12.40
2017,09,28,07,23,12.40
2017,09,28,07,24,12.50
2017,09,28,07,25,12.50
2017,09,28,07,26,12.50
2017,09,28,07,27,12.60
2017,09,28,07,28,12.60
2017,09,28,07,29,12.60
2017,09,28,07,30,12.60
2017,09,28,07,31,12.60
2017,09,28,07,32,12.60
2017,09,28,07,33,12.60
2017,09,28,07,34,12.60
2017,09,28,07,35,12.60
2017,09,28,07,36,12.60
2017,09,28,07,37,12.60
2017,09,28,07,38,12.50
2017,09,28,07,39,12.50
2017,09,28,07,40,12.50
2017,09,28,07,41,12.60
2017,09,28,07,42,12.60
2017,09,28,07,43,12.60
2017,09,28,07,44,12.60
2017,09,28,07,45,12.70
2017,09,28,07,46,12.70
2017,09,28,07,47,12.80
2017,09,28,07,48,12.90
2017,09,28,07,49,13.00
2017,09,28,07,50,13.10
2017,09,28,07,51,13.10
2017,09,28,07,52,13.20
2017,09,28,07,53,13.20
2017,09,28,07,54,13.20
2017,09,28,07,55,13.20
2017,09,28,07,56,13.20
2017,09,28,07,57,13.20
2017,09,28,07,58,13.30
2017,09,28,07,59,13.30
2017,09,28,08,00,13.30
2017,09,28,08,01,13.30
2017,09,28,08,02,13.40
2017,09,28,08,03,13.40
2017,09,28,08,04,13.40
2017,09,28,08,05,13.50
2017,09,28,08,06,13.50
2017,09,28,08,07,13.60
2017,09,28,08,08,13.60
2017,09,28,08,09,13.60
2017,09,28,08,10,13.70
2017,09,28,08,11,13.70
2017,09,28,08,12,13.70
2017,09,28,08,13,13.70
2017,09,28,08,14,13.70
2017,09,28,08,15,13.70
2017,09,28,08,16,13.70
2017,09,28,08,17,13.80
2017,09,28,08,18,13.80
2017,09,28,08,19,13.80
2017,09,28,08,20,13.80
2017,09,28,08,21,13.80
2017,09,28,08,22,13.80
2017,09,28,08,23,13.80
2017,09,28,08,24,13.90
2017,09,28,08,25,13.90
2017,09,28,08,26,13.90
2017,09,28,08,27,14.00
2017,09,28,08,28,14.00
2017,09,28,08,29,14.10
2017,09,28,08,30,14.20
2017,09,28,08,31,14.30
2017,09,28,08,32,14.40
2017,09,28,08,33,14.50
2017,09,28,08,34,14.60
2017,09,28,08,35,14.80
2017,09,28,08,36,15.00
2017,09,28,08,37,15.00
2017,09,28,08,38,15.10
2017,09,28,08,39,15.20
2017,09,28,08,40,15.40
2017,09,28,08,41,15.50
2017,09,28,08,42,15.60
2017,09,28,08,43,15.70
2017,09,28,08,44,15.80
2017,09,28,08,45,15.80
2017,09,28,08,46,15.90
2017,09,28,08,47,15.90
2017,09,28,08,48,16.00
2017,09,28,08,49,16.00
2017,09,28,08,50,16.00
2017,09,28,08,51,16.00
2017,09,28,08,52,16.10
2017,09,28,08,53,16.10
2017,09,28,08,54,16.10
2017,09,28,08,55,16.20
2017,09,28,08,56,16.20
2017,09,28,08,57,16.30
2017,09,28,08,58,16.40
2017,09,28,08,59,16.50
2017,09,28,09,00,16.60
2017,09,28,09,01,16.60
2017,09,28,09,02,16.70
2017,09,28,09,03,16.70
2017,09,28,09,04,16.80
2017,09,28,09,05,16.90
2017,09,28,09,06,16.90
2017,09,28,09,07,17.00
2017,09,28,09,08,17.00
2017,09,28,09,09,17.10
2017,09,28,09,10,17.20
2017,09,28,09,11,17.20
2017,09,28,09,12,17.30
2017,09,28,09,13,17.30
2017,09,28,09,14,17.30
2017,09,28,09,15,17.30
2017,09,28,09,16,17.30
2017,09,28,09,17,17.30
2017,09,28,09,18,17.30
2017,09,28,09,19,17.30
2017,09,28,09,20,17.30
2017,09,28,09,21,17.40
2017,09,28,09,22,17.40
2017,09,28,09,23,17.50
2017,09,28,09,24,17.60
2017,09,28,09,25,17.60
2017,09,28,09,26,17.70
2017,09,28,09,27,17.70
2017,09,28,09,28,17.80
2017,09,28,09,29,17.80
2017,09,28,09,30,17.90
2017,09,28,09,31,17.90
2017,09,28,09,32,18.00
2017,09,28,09,33,18.10
2017,09,28,09,34,18.20
2017,09,28,09,35,18.20
2017,09,28,09,36,18.20
2017,09,28,09,37,18.10
2017,09,28,09,38,18.00
2017,09,28,09,39,17.90
2017,09,28,09,40,17.80
2017,09,28,09,41,17.70
2017,09,28,09,42,17.70
2017,09,28,09,43,17.70
2017,09,28,09,44,17.60
2017,09,28,09,45,17.70
2017,09,28,09,46,17.70
2017,09,28,09,47,17.70
2017,09,28,09,48,17.70
2017,09,28,09,49,17.70
2017,09,28,09,50,17.70
2017,09,28,09,51,17.70
2017,09,28,09,52,17.70
2017,09,28,09,53,17.70
2017,09,28,09,54,17.70
2017,09,28,09,55,17.60
2017,09,28,09,56,17.60
2017,09,28,09,57,17.70
2017,09,28,09,58,17.70
2017,09,28,09,59,17.70
2017,09,28,10,00,17.80
2017,09,28,10,01,17.80
2017,09,28,10,02,17.90
2017,09,28,10,03,17.90
2017,09,28,10,04,17.90
2017,09,28,10,05,18.00
2017,09,28,10,06,18.10
2017,09,28,10,07,18.20
2017,09,28,10,08,18.30
2017,09,28,10,09,18.30
2017,09,28,10,10,18.40
2017,09,28,10,11,18.50
2017,09,28,10,12,18.50
2017,09,28,10,13,18.50
2017,09,28,10,14,18.40
2017,09,28,10,15,18.40
2017,09,28,10,16,18.30
2017,09,28,10,17,18.30
2017,09,28,10,18,18.20
2017,09,28,10,19,18.20
2017,09,28,10,20,18.20
2017,09,28,10,21,18.20
2017,09,28,10,22,18.30
2017,09,28,10,23,18.30
2017,09,28,10,24,18.30
2017,09,28,10,25,18.40
2017,09,28,10,26,18.40
2017,09,28,10,27,18.40
2017,09,28,10,28,18.40
2017,09,28,10,29,18.30
2017,09,28,10,30,18.30
2017,09,28,10,31,18.30
2017,09,28,10,32,18.30
2017,09,28,10,33,18.40
2017,09,28,10,34,18.50
2017,09,28,10,35,18.60
2017,09,28,10,36,18.60
2017,09,28,10,37,18.60
2017,09,28,10,38,18.70
2017,09,28,10,39,18.80
2017,09,28,10,40,18.90
2017,09,28,10,41,19.10
2017,09,28,10,42,19.10
2017,09,28,10,43,19.20
2017,09,28,10,44,19.30
2017,09,28,10,45,19.40
2017,09,28,10,46,19.60
2017,09,28,10,47,19.70
2017,09,28,10,48,19.70
2017,09,28,10,49,19.70
2017,09,28,10,50,19.80
2017,09,28,10,51,19.80
2017,09,28,10,52,19.80
2017,09,28,10,53,19.70
2017,09,28,10,54,19.70
2017,09,28,10,55,19.80
2017,09,28,10,56,19.80
2017,09,28,10,57,19.80
2017,09,28,10,58,19.80
2017,09,28,10,59,19.90
2017,09,28,11,00,19.90
2017,09,28,11,01,19.90
2017,09,28,11,02,19.80
2017,09,28,11,03,19.80
2017,09,28,11,04,19.80
2017,09,28,11,05,19.70
2017,09,28,11,06,19.60
2017,09,28,11,07,19.60
2017,09,28,11,08,19.60
2017,09,28,11,09,19.60
2017,09,28,11,10,19.60
2017,09,28,11,11,19.60
2017,09,28,11,12,19.60
2017,09,28,11,13,19.50
2017,09,28,11,14,19.50
2017,09,28,11,15,19.50
2017,09,28,11,16,19.50
2017,09,28,11,17,19.40
2017,09,28,11,18,19.40
2017,09,28,11,19,19.30
2017,09,28,11,20,19.20
2017,09,28,11,21,19.20
2017,09,28,11,22,19.20
2017,09,28,11,23,19.30
2017,09,28,11,24,19.30
2017,09,28,11,25,19.30
2017,09,28,11,26,19.40
2017,09,28,11,27,19.50
2017,09,28,11,28,19.60
2017,09,28,11,29,19.70
2017,09,28,11,30,19.80
2017,09,28,11,31,19.90
2017,09,28,11,32,20.00
2017,09,28,11,33,20.10
2017,09,28,11,34,20.10
2017,09,28,11,35,20.20
2017,09,28,11,36,20.20
2017,09,28,11,37,20.20
2017,09,28,11,38,20.20
2017,09,28,11,39,20.20
2017,09,28,11,40,20.20
2017,09,28,11,41,20.20
2017,09,28,11,42,20.30
2017,09,28,11,43,20.40
2017,09,28,11,44,20.50
2017,09,28,11,45,20.50
2017,09,28,11,46,20.60
2017,09,28,11,47,20.60
2017,09,28,11,48,20.70
2017,09,28,11,49,20.70
2017,09,28,11,50,20.70
2017,09,28,11,51,20.70
2017,09,28,11,52,20.70
2017,09,28,11,53,20.60
2017,09,28,11,54,20.60
2017,09,28,11,55,20.50
2017,09,28,11,56,20.50
2017,09,28,11,57,20.50
2017,09,28,11,58,20.60
2017,09,28,11,59,20.60
2017,09,28,12,00,20.60
2017,09,28,12,01,20.60
2017,09,28,12,02,20.50
2017,09,28,12,03,20.60
2017,09,28,12,04,20.60
2017,09,28,12,05,20.60
2017,09,28,12,06,20.60
2017,09,28,12,07,20.60
2017,09,28,12,08,20.60
2017,09,28,12,09,20.70
2017,09,28,12,10,20.70
2017,09,28,12,11,20.70
2017,09,28,12,12,20.80
2017,09,28,12,13,20.90
2017,09,28,12,14,21.10
2017,09,28,12,15,21.10
2017,09,28,12,16,21.10
2017,09,28,12,17,21.10
2017,09,28,12,18,21.20
2017,09,28,12,19,21.30
2017,09,28,12,20,21.30
2017,09,28,12,21,21.30
2017,09,28,12,22,21.30
2017,09,28,12,23,21.30
2017,09,28,12,24,21.30
2017,09,28,12,25,21.30
2017,09,28,12,26,21.30
2017,09,28,12,27,21.30
2017,09,28,12,28,21.30
2017,09,28,12,29,21.30
2017,09,28,12,30,21.20
2017,09,28,12,31,21.10
2017,09,28,12,32,21.00
2017,09,28,12,33,21.00
2017,09,28,12,34,20.90
2017,09,28,12,35,20.90
2017,09,28,12,36,20.90
2017,09,28,12,37,20.90
2017,09,28,12,38,20.90
2017,09,28,12,39,20.90
2017,09,28,12,40,21.00
2017,09,28,12,41,21.00
2017,09,28,12,42,21.00
2017,09,28,12,43,21.10
2017,09,28,12,44,21.10
2017,09,28,12,45,21.10
2017,09,28,12,46,21.10
2017,09,28,12,47,21.10
2017,09,28,12,48,21.20
2017,09,28,12,49,21.20
2017,09,28,12,50,21.30
2017,09,28,12,51,21.30
2017,09,28,12,52,21.30
2017,09,28,12,53,21.30
2017,09,28,12,54,21.20
2017,09,28,12,55,21.20
2017,09,28,12,56,21.30
2017,09,28,12,57,21.30
2017,09,28,12,58,21.40
2017,09,28,12,59,21.50
2017,09,28,13,00,21.50
2017,09,28,13,01,21.60
2017,09,28,13,02,21.70
2017,09,28,13,03,21.70
2017,09,28,13,04,21.70
2017,09,28,13,05,21.70
2017,09,28,13,06,21.70
2017,09,28,13,07,21.70
2017,09,28,13,08,21.60
2017,09,28,13,09,21.50
2017,09,28,13,10,21.50
2017,09,28,13,11,21.50
2017,09,28,13,12,21.50
2017,09,28,13,13,21.50
2017,09,28,13,14,21.50
2017,09,28,13,15,21.50
2017,09,28,13,16,21.50
2017,09,28,13,17,21.50
2017,09,28,13,18,21.50
2017,09,28,13,19,21.50
2017,09,28,13,20,21.50
2017,09,28,13,21,21.60
2017,09,28,13,22,21.60
2017,09,28,13,23,21.60
2017,09,28,13,24,21.70
2017,09,28,13,25,21.80
2017,09,28,13,26,21.80
2017,09,28,13,27,21.90
2017,09,28,13,28,21.90
2017,09,28,13,29,22.00
2017,09,28,13,30,22.00
2017,09,28,13,31,22.00
2017,09,28,13,32,21.90
2017,09,28,13,33,21.90
2017,09,28,13,34,21.90
2017,09,28,13,35,21.90
2017,09,28,13,36,21.80
2017,09,28,13,37,21.80
2017,09,28,13,38,21.80
2017,09,28,13,39,21.80
2017,09,28,13,40,21.80
2017,09,28,13,41,21.80
2017,09,28,13,42,21.90
2017,09,28,13,43,21.90
2017,09,28,13,44,22.00
2017,09,28,13,45,22.10
2017,09,28,13,46,22.20
2017,09,28,13,47,22.30
2017,09,28,13,48,22.30
2017,09,28,13,49,22.30
2017,09,28,13,50,22.30
2017,09,28,13,51,22.20
2017,09,28,13,52,22.20
2017,09,28,13,53,22.20
2017,09,28,13,54,22.20
2017,09,28,13,55,22.20
2017,09,28,13,56,22.20
2017,09,28,13,57,22.20
2017,09,28,13,58,22.10
2017,09,28,13,59,22.20
2017,09,28,14,00,22.20
2017,09,28,14,01,22.20
2017,09,28,14,02,22.30
2017,09,28,14,03,22.30
2017,09,28,14,04,22.30
2017,09,28,14,05,22.40
2017,09,28,14,06,22.50
2017,09,28,14,07,22.50
2017,09,28,14,08,22.50
2017,09,28,14,09,22.50
2017,09,28,14,10,22.50
2017,09,28,14,11,22.50
2017,09,28,14,12,22.40
2017,09,28,14,13,22.50
2017,09,28,14,14,22.50
2017,09,28,14,15,22.50
2017,09,28,14,16,22.60
2017,09,28,14,17,22.60
2017,09,28,14,18,22.60
2017,09,28,14,19,22.60
2017,09,28,14,20,22.70
2017,09,28,14,21,22.80
2017,09,28,14,22,22.80
2017,09,28,14,23,22.70
2017,09,28,14,24,22.70
2017,09,28,14,25,22.70
2017,09,28,14,26,22.70
2017,09,28,14,27,22.70
2017,09,28,14,28,22.80
2017,09,28,14,29,22.80
2017,09,28,14,30,22.80
2017,09,28,14,31,22.80
2017,09,28,14,32,22.80
2017,09,28,14,33,22.80
2017,09,28,14,34,22.90
2017,09,28,14,35,22.90
2017,09,28,14,36,22.90
2017,09,28,14,37,22.90
2017,09,28,14,38,22.90
2017,09,28,14,39,22.80
2017,09,28,14,40,22.80
2017,09,28,14,41,22.90
2017,09,28,14,42,22.80
2017,09,28,14,43,22.80
2017,09,28,14,44,22.80
2017,09,28,14,45,22.90
2017,09,28,14,46,22.90
2017,09,28,14,47,23.00
2017,09,28,14,48,23.00
2017,09,28,14,49,23.10
2017,09,28,14,50,23.10
2017,09,28,14,51,23.20
2017,09,28,14,52,23.20
2017,09,28,14,53,23.30
2017,09,28,14,54,23.40
2017,09,28,14,55,23.50
2017,09,28,14,56,23.50
2017,09,28,14,57,23.50
2017,09,28,14,58,23.60
2017,09,28,14,59,23.60
2017,09,28,15,00,23.50
2017,09,28,15,01,23.50
2017,09,28,15,02,23.60
2017,09,28,15,03,23.60
2017,09,28,15,04,23.50
2017,09,28,15,05,23.40
2017,09,28,15,06,23.40
2017,09,28,15,07,23.50
2017,09,28,15,08,23.50
2017,09,28,15,09,23.50
2017,09,28,15,10,23.60
2017,09,28,15,11,23.70
2017,09,28,15,12,23.70
2017,09,28,15,13,23.70
2017,09,28,15,14,23.60
2017,09,28,15,15,23.60
2017,09,28,15,16,23.50
2017,09,28,15,17,23.60
2017,09,28,15,18,23.60
2017,09,28,15,19,23.70
2017,09,28,15,20,23.70
2017,09,28,15,21,23.70
2017,09,28,15,22,23.70
2017,09,28,15,23,23.70
2017,09,28,15,24,23.70
2017,09,28,15,25,23.70
2017,09,28,15,26,23.70
2017,09,28,15,27,23.70
2017,09,28,15,28,23.80
2017,09,28,15,29,23.80
2017,09,28,15,30,23.70
2017,09,28,15,31,23.70
2017,09,28,15,32,23.60
2017,09,28,15,33,23.60
2017,09,28,15,34,23.70
2017,09,28,15,35,23.70
2017,09,28,15,36,23.70
2017,09,28,15,37,23.70
2017,09,28,15,38,23.80
2017,09,28,15,39,23.80
2017,09,28,15,40,23.80
2017,09,28,15,41,23.80
2017,09,28,15,42,23.90
2017,09,28,15,43,23.90
2017,09,28,15,44,23.90
2017,09,28,15,45,23.90
2017,09,28,15,46,23.80
2017,09,28,15,47,23.80
2017,09,28,15,48,23.90
2017,09,28,15,49,23.90
2017,09,28,15,50,23.90
2017,09,28,15,51,23.90
2017,09,28,15,52,23.90
2017,09,28,15,53,23.90
2017,09,28,15,54,24.00
2017,09,28,15,55,24.00
2017,09,28,15,56,24.00
2017,09,28,15,57,24.00
2017,09,28,15,58,24.00
2017,09,28,15,59,24.00
2017,09,28,16,00,24.10
2017,09,28,16,01,24.10
2017,09,28,16,02,24.10
2017,09,28,16,03,24.10
2017,09,28,16,04,24.10
2017,09,28,16,05,24.10
2017,09,28,16,06,24.10
2017,09,28,16,07,24.00
2017,09,28,16,08,24.00
2017,09,28,16,09,24.00
2017,09,28,16,10,24.00
2017,09,28,16,11,23.90
2017,09,28,16,12,23.90
2017,09,28,16,13,24.00
2017,09,28,16,14,24.00
2017,09,28,16,15,24.00
2017,09,28,16,16,24.10
2017,09,28,16,17,24.10
2017,09,28,16,18,24.10
2017,09,28,16,19,24.10
2017,09,28,16,20,24.10
2017,09,28,16,21,24.10
2017,09,28,16,22,24.10
2017,09,28,16,23,24.10
2017,09,28,16,24,24.20
2017,09,28,16,25,24.20
2017,09,28,16,26,24.30
2017,09,28,16,27,24.40
2017,09,28,16,28,24.40
2017,09,28,16,29,24.50
2017,09,28,16,30,24.50
2017,09,28,16,31,24.50
2017,09,28,16,32,24.60
2017,09,28,16,33,24.60
2017,09,28,16,34,24.60
2017,09,28,16,35,24.60
2017,09,28,16,36,24.50
2017,09,28,16,37,24.40
2017,09,28,16,38,24.40
2017,09,28,16,39,24.40
2017,09,28,16,40,24.40
2017,09,28,16,41,24.40
2017,09,28,16,42,24.40
2017,09,28,16,43,24.40
2017,09,28,16,44,24.40
2017,09,28,16,45,24.40
2017,09,28,16,46,24.40
2017,09,28,16,47,24.40
2017,09,28,16,48,24.40
2017,09,28,16,49,24.50
2017,09,28,16,50,24.50
2017,09,28,16,51,24.60
2017,09,28,16,52,24.60
2017,09,28,16,53,24.60
2017,09,28,16,54,24.60
2017,09,28,16,55,24.60
2017,09,28,16,56,24.60
2017,09,28,16,57,24.60
2017,09,28,16,58,24.60
2017,09,28,16,59,24.60
2017,09,28,17,00,24.60
2017,09,28,17,01,24.60
2017,09,28,17,02,24.60
2017,09,28,17,03,24.60
2017,09,28,17,04,24.60
2017,09,28,17,05,24.60
2017,09,28,17,06,24.60
2017,09,28,17,07,24.60
2017,09,28,17,08,24.60
2017,09,28,17,09,24.60
2017,09,28,17,10,24.60
2017,09,28,17,11,24.60
2017,09,28,17,12,24.60
2017,09,28,17,13,24.60
2017,09,28,17,14,24.60
2017,09,28,17,15,24.60
2017,09,28,17,16,24.70
2017,09,28,17,17,24.70
2017,09,28,17,18,24.70
2017,09,28,17,19,24.70